Preview of NWS' New Version of Forecast
This preview is not operational and should not be used for support decisions.

Regional Weather Roundup (RWR)

Issued by National Weather Service (NWS)

                            
000
ASUS46 KPQR 242110
RWROR 

OREGON REGIONAL WEATHER ROUNDUP
NATIONAL WEATHER SERVICE PORTLAND OR
200 PM PDT SAT AUG 24 2019

NOTE: "FAIR" INDICATES FEW OR NO CLOUDS BELOW 12,000 FEET WITH
NO SIGNIFICANT WEATHER AND/OR OBSTRUCTIONS TO VISIBILITY.

ORZ001>013-242200-
NORTHWEST OREGON

  
CITY           SKY/WX    TMP DP  RH WIND       PRES   REMARKS
ASTORIA        CLOUDY    65  60  84 VRB3      30.04R                  
TILLAMOOK      CLOUDY    68  59  73 W9        30.06S                  
NEWPORT        SUNNY     68  55  64 NW9       30.08R                  
FLORENCE       FAIR      68  54  60 NW14      30.03R                  
PORTLAND       PTSUNNY   78  52  40 NW6       30.00S                  
VANCOUVER WA   CLOUDY    77  51  40 VRB5      29.99F                  
SCAPPOOSE      CLOUDY    75  54  47 SE6       29.99S                  
HILLSBORO      CLOUDY    77  53  43 VRB5      29.99F                  
AURORA         SUNNY     79  48  33 VRB5      30.01F                  
MCMINNVILLE    CLOUDY    78  48  34 CALM      29.99F                  
SALEM          SUNNY     79  47  32 N8        29.99F                  
CORVALLIS      SUNNY     80  52  37 N7        30.00S                  
EUGENE         PTSUNNY   82  48  30 NE8       29.99F                  
CRESWELL       SUNNY     81  54  39 NW9G18    29.97F                  
$$

ORZ021-028-242200-
SOUTHWEST OREGON

  
CITY           SKY/WX    TMP DP  RH WIND       PRES   REMARKS
NORTH BEND     SUNNY     69  58  67 N16G22    30.04R                  
BROOKINGS      SUNNY     65  55  70 S6        29.99S                  
ROSEBURG       SUNNY     84  52  33 N10       29.96F                  
SEXTON SUMMIT  SUNNY     76  38  25 VRB3      30.10R                  
GRANTS PASS    FAIR      86  39  19 VRB5      29.97F                  
MEDFORD        SUNNY     89  41  18 N3        29.94F                  
$$

ORZ014>016-041-242200-
COLUMBIA GORGE

  
CITY           SKY/WX    TMP DP  RH WIND       PRES   REMARKS
TROUTDALE      MOSUNNY   77  48  35 CALM      30.00S                  
HOOD RIVER     SUNNY     79  48  34 NW6G17    29.95S                  
THE DALLES     SUNNY     83  50  31 NW14G24   29.90S                  
$$

ORZ029>031-041-044-049-050-061>064-502-503-505>511-242200-
EASTERN OREGON

  
CITY           SKY/WX    TMP DP  RH WIND       PRES   REMARKS
MADRAS         SUNNY     82  39  21 NW6       29.96S                  
REDMOND        SUNNY     86  35  16 VRB7      29.96F                  
BEND           SUNNY     84  34  16 NE5       29.97F                  
PRINEVILLE     SUNNY     82  34  17 VRB5      29.98S                  
KLAMATH FALLS  SUNNY     88  40  18 W16G25    30.04F                  
LAKEVIEW       SUNNY     89  44  20 SW14G23   30.07F                  
HERMISTON      MOSUNNY   88  44  21 W17G25    29.84S                  
PENDLETON      SUNNY     85  34  16 W18G26    29.88S                  
JOHN DAY       SUNNY     87  34  15 NW10G17   29.97F                  
MEACHAM        SUNNY     76  31  19 W6        30.00R                  
LA GRANDE      SUNNY     86  36  16 VRB3      29.90F                  
BAKER CITY     SUNNY     87  41  19 VRB3      29.93F                  
BURNS          SUNNY     89  34  14 W14G25    30.00F                  
ROME             N/A     95  38  13 W16G22    29.95F HX  90           
ONTARIO        SUNNY     92  46  20 VRB3      29.87F                  
$$